Theta_e
296 296 296 296 297 298 299 298 297 297 298 298 298 297 297 297 297 297 297 297 297 297 296 296 296 296 295 294 295 295 295 295 295 294 294 295 295 295 296 296 296 296 296 296 296 296 296 296 297 297 298 297 297 296 296 296 296 296 297 298 299 298 298 298 297 297 297 297 297
295 295 295 294 295 297 298 298 297 297 297 298 297 296 296 297 296 296 296 296 296 296 296 296 295 295 294 294 294 295 295 295 295 295 295 295 295 295 295 295 295 295 295 295 295 295 296 296 296 297 297 296 295 294 294 294 294 295 296 297 296 295 295 295 294 294 294 294 294
295 295 296 296 297 297 297 297 296 296 296 296 296 296 296 296 296 296 296 296 295 295 296 296 295 294 294 294 295 295 295 295 295 295 295 295 295 295 294 294 294 294 294 294 294 294 295 295 295 295 295 294 293 291 291 292 292 293 294 294 293 292 292 292 292 292 292 292 292
294 295 296 296 295 295 295 296 295 294 294 295 295 295 296 296 296 296 295 295 295 295 295 295 295 294 294 294 294 294 294 294 294 294 294 294 294 294 293 293 293 293 293 293 293 293 294 294 294 294 294 293 291 290 290 291 291 292 292 292 291 290 290 290 290 290 290 290 290
294 295 295 295 295 294 294 294 294 294 294 295 295 296 296 296 296 296 295 295 295 295 294 293 294 294 294 293 293 293 294 294 293 294 294 293 293 292 292 292 291 291 292 292 292 292 292 292 293 293 293 292 291 290 289 289 290 290 290 290 290 289 289 289 289 290 289 289 289
294 294 294 295 294 294 294 294 293 294 294 295 295 295 295 295 295 295 295 295 294 293 292 292 293 293 293 293 293 293 293 294 293 293 293 292 292 291 291 291 291 291 291 290 291 291 291 291 291 292 292 291 290 289 289 289 289 289 288 288 288 288 288 288 289 289 289 288 288
294 294 294 294 294 294 294 293 293 294 294 295 294 294 294 294 294 293 292 293 293 293 293 293 293 293 293 293 293 293 293 293 293 292 292 291 291 290 290 290 289 289 289 289 289 290 290 290 290 290 290 290 290 289 288 288 288 288 287 287 288 288 288 287 288 288 288 287 287
294 294 294 294 293 293 293 293 293 294 294 295 294 293 292 292 292 292 292 293 293 293 293 293 293 293 293 293 292 292 292 291 291 291 291 290 290 289 289 289 289 288 288 288 288 288 288 289 289 289 289 289 289 288 287 287 287 287 287 287 287 287 288 288 288 287 287 287 286
293 293 293 293 293 293 292 292 293 293 294 293 293 292 292 292 292 292 292 293 292 292 293 293 292 292 292 292 292 291 291 291 290 290 290 289 289 289 288 288 288 287 287 288 287 287 287 288 288 288 288 288 287 287 286 286 286 285 285 285 286 286 286 287 287 287 287 286 286
292 292 292 292 292 292 292 292 293 293 293 293 292 291 291 291 291 292 292 292 292 292 292 292 292 291 291 291 291 290 290 290 289 289 288 288 288 288 288 287 287 286 286 286 286 286 286 286 286 286 286 286 285 285 285 285 285 284 284 284 284 284 284 284 285 285 285 285 285
291 291 291 291 291 291 292 292 292 293 293 292 291 291 291 291 291 292 292 292 291 291 291 291 291 290 290 290 290 289 289 289 288 288 287 287 287 287 287 286 286 286 285 286 286 285 285 285 284 284 284 284 284 284 284 284 284 283 283 283 283 282 282 283 283 283 284 284 284
291 291 291 291 291 291 292 292 292 292 292 291 291 291 291 292 291 291 291 291 290 290 290 290 290 289 289 289 288 288 287 287 286 286 286 286 286 285 285 285 285 285 285 285 284 284 284 283 283 283 283 283 283 283 283 283 283 282 282 282 282 281 281 282 282 282 283 283 283
290 290 290 290 290 291 291 292 292 291 291 291 291 291 291 291 290 290 290 289 289 289 289 289 289 288 287 287 287 286 286 286 285 285 285 285 285 284 284 284 284 284 284 284 284 283 283 282 282 282 282 282 282 283 283 283 282 282 281 281 281 281 280 281 281 281 282 282 282
289 290 290 290 290 290 291 290 291 291 290 289 289 289 289 289 289 289 288 288 288 287 287 287 287 286 286 286 285 285 284 284 284 283 283 284 284 284 283 283 283 283 283 283 283 282 282 282 281 281 281 281 281 282 282 282 281 281 280 280 280 280 280 280 280 281 281 281 281
289 289 289 289 289 290 290 290 290 290 289 288 288 288 288 288 288 287 287 287 286 286 286 285 285 285 285 285 284 284 283 283 283 283 283 283 283 283 283 283 283 283 283 283 282 282 282 281 281 281 281 281 281 281 281 281 281 280 280 280 280 280 280 280 280 280 280 280 279
288 289 289 289 289 289 289 289 289 288 288 287 287 287 287 287 287 286 286 285 285 285 284 284 284 284 284 284 284 283 282 282 282 282 282 282 282 282 282 282 282 282 282 282 282 281 281 281 281 281 281 281 281 280 280 280 280 280 280 280 280 280 279 279 279 279 278 278 278
288 288 288 288 288 288 288 287 287 287 287 286 286 286 285 285 286 285 285 285 284 284 284 283 283 282 282 282 282 282 281 281 281 281 281 281 281 281 281 281 281 281 281 281 281 280 280 280 281 281 281 281 281 280 280 280 280 279 279 279 279 279 278 278 278 277 277 277 277
287 287 287 287 287 287 286 286 286 286 285 285 285 285 284 284 284 285 285 285 284 284 283 282 281 281 281 281 281 281 281 281 281 281 281 281 281 281 281 281 281 280 280 280 280 280 280 280 280 281 281 281 281 280 279 279 279 278 278 278 278 278 278 277 277 276 276 276 276
287 287 287 286 286 286 285 285 285 285 284 284 284 284 284 284 285 285 285 284 283 282 281 281 280 280 280 280 280 280 280 280 281 281 281 280 280 280 280 280 280 280 280 280 279 279 280 280 280 281 281 280 280 279 279 278 278 277 277 277 277 277 276 276 276 275 275 275 275
286 286 286 286 285 285 285 285 284 284 284 283 283 283 284 285 285 284 283 282 281 281 280 280 279 280 280 280 280 280 280 280 280 280 280 280 280 280 280 279 279 279 279 279 279 279 279 279 279 280 280 280 279 278 277 277 277 276 276 276 276 276 275 275 275 274 274 274 275
285 285 285 285 284 284 284 284 284 283 283 283 284 284 284 285 283 282 281 280 280 279 279 279 279 279 280 279 279 280 280 280 280 280 280 280 280 280 279 279 279 279 279 278 279 278 278 278 279 279 279 279 278 277 277 276 275 275 275 274 274 274 274 274 274 274 274 274 274
285 285 284 284 284 283 283 283 283 283 283 284 285 285 284 283 282 281 280 279 279 279 279 279 279 279 279 279 279 279 279 279 280 280 280 280 280 280 279 279 278 278 278 278 278 278 278 278 278 278 278 278 277 276 276 276 274 274 273 273 273 273 273 273 273 273 274 274 274
284 284 284 283 283 282 282 282 283 284 284 285 285 284 282 281 280 280 279 279 278 278 279 279 279 279 279 279 279 279 279 279 279 279 279 279 279 279 278 278 278 278 278 278 278 278 277 278 278 277 277 276 275 274 274 275 274 273 272 272 273 273 273 273 273 273 274 274 274
284 283 283 283 282 282 282 283 284 285 285 284 283 282 281 280 279 279 278 278 278 278 278 279 278 279 279 278 278 278 278 278 278 279 279 279 279 278 278 278 278 278 278 279 280 281 280 280 278 277 276 275 274 274 274 274 273 273 273 273 273 273 273 273 273 274 274 274 274
283 283 282 283 283 283 283 284 285 285 284 284 282 281 280 279 279 278 278 278 278 279 278 278 278 278 278 278 278 278 278 278 278 278 278 278 278 278 278 278 278 278 279 281 284 286 286 285 283 280 277 275 275 275 275 275 274 274 274 274 274 274 273 273 273 274 274 274 274
282 282 282 283 284 284 284 284 284 284 283 282 281 280 279 279 278 278 278 278 278 278 278 278 277 278 278 278 278 278 278 278 277 277 277 277 277 277 278 278 278 279 281 284 286 286 287 287 287 284 279 275 274 274 275 275 275 275 275 275 274 274 273 273 273 273 273 273 273
282 282 283 285 285 285 285 284 283 283 282 281 280 279 279 278 278 277 277 278 278 278 278 278 278 278 278 277 277 277 277 277 277 277 276 276 276 277 277 278 278 279 281 285 286 287 287 287 288 287 283 277 275 274 275 275 275 275 276 275 275 274 273 272 272 272 273 273 272
283 284 285 285 285 285 285 284 283 282 281 279 279 279 278 278 278 277 277 277 277 277 277 278 277 277 277 276 276 276 276 276 276 276 276 276 276 276 276 277 277 280 283 287 287 287 287 287 288 287 285 280 276 275 275 275 275 275 275 275 274 273 272 272 272 272 272 272 272
285 286 285 285 285 285 284 283 282 281 279 278 278 278 278 278 278 278 277 277 277 277 277 277 277 276 276 276 276 276 276 276 276 276 276 276 276 276 276 276 277 280 284 287 287 287 287 287 287 287 286 284 278 275 274 274 275 275 274 274 274 273 272 272 272 271 271 271 271
286 286 285 285 285 284 283 282 281 279 278 278 278 278 278 278 278 277 277 277 277 277 277 276 275 275 275 275 275 275 276 276 275 275 275 275 276 276 276 276 277 279 283 286 286 286 286 286 286 286 286 285 281 277 274 275 275 275 274 274 274 273 272 272 271 271 271 271 271
286 285 285 283 283 282 281 280 279 278 278 278 278 278 278 278 277 277 277 276 276 276 275 275 274 275 275 275 275 275 275 275 275 275 275 275 275 276 276 276 276 279 282 285 285 285 285 285 286 286 286 286 281 277 275 276 275 275 275 275 274 274 273 272 272 271 271 271 271
285 284 283 282 281 280 279 279 278 278 278 278 278 278 278 278 277 276 276 275 275 275 275 274 275 275 275 275 275 275 275 275 275 275 274 274 275 275 275 276 276 278 281 284 284 284 285 285 285 285 285 285 281 278 277 276 275 275 275 275 274 274 273 273 272 271 271 271 271
284 283 281 280 280 279 278 278 278 277 277 277 278 278 278 277 276 275 275 275 274 275 275 275 275 275 275 275 275 275 275 275 274 274 274 274 274 275 275 276 276 278 281 283 284 284 284 285 285 284 283 281 279 277 276 276 276 275 275 275 274 274 273 272 272 272 271 271 271
282 281 279 279 278 278 278 277 277 276 277 277 278 278 277 276 276 275 275 275 275 274 275 275 275 275 275 275 275 275 275 274 274 274 274 274 274 275 275 275 275 278 281 283 283 284 284 284 284 282 281 280 278 277 276 276 276 275 275 274 274 273 273 272 272 272 272 271 272
280 279 278 277 277 277 277 276 276 276 277 277 278 278 277 276 276 276 276 276 275 275 274 274 274 274 274 274 274 274 274 274 274 274 274 274 274 274 274 273 274 277 281 283 283 283 284 284 283 281 280 279 277 277 276 276 275 275 274 273 273 273 273 272 272 272 272 272 272
279 278 277 277 277 277 277 276 276 277 277 278 278 277 276 276 276 276 276 276 275 275 274 274 274 274 274 274 274 274 274 275 275 275 274 274 273 273 273 272 273 276 279 282 283 283 283 283 282 281 280 277 276 276 276 275 275 274 273 272 272 272 272 272 272 272 272 272 272
278 277 277 277 277 277 277 277 277 277 277 278 277 276 276 276 276 276 275 276 276 275 275 274 274 274 274 274 274 274 274 274 275 274 274 274 273 272 272 271 272 274 277 281 282 282 282 282 282 281 279 276 274 274 274 274 273 273 272 272 272 271 271 271 271 271 272 272 272
277 277 277 278 278 278 278 277 277 277 278 277 277 276 276 276 276 275 275 276 276 275 274 274 274 274 274 274 274 274 274 274 274 274 274 273 273 272 271 271 271 273 276 280 281 281 281 281 281 281 279 275 274 273 273 273 272 272 271 271 271 270 270 271 271 271 271 271 274
277 277 277 278 279 278 278 278 278 278 278 277 276 276 275 275 275 276 276 276 275 274 274 274 275 275 275 274 274 274 274 274 274 274 274 273 273 273 272 270 270 272 275 279 280 280 280 280 281 280 279 277 274 273 273 273 272 271 271 270 270 270 270 271 271 271 271 271 275
277 277 278 278 279 279 278 278 278 278 277 277 277 276 276 275 276 277 277 275 274 274 274 274 275 275 275 275 274 273 273 274 274 274 273 272 273 274 273 270 270 271 274 278 279 280 280 280 280 280 280 278 275 274 273 272 271 271 270 270 270 271 271 271 271 271 271 271 274
278 278 279 279 279 279 280 280 280 279 278 277 277 276 276 276 276 277 276 274 274 274 274 275 275 275 275 274 273 273 273 274 274 273 272 271 271 273 273 270 269 270 272 275 278 279 280 280 280 280 280 278 276 274 273 272 272 271 271 271 271 271 271 271 271 272 272 271 272
Wind_Speed
5 5 4 4 4 4 4 4 4 4 4 4 4 4 4 4 4 4 4 4 4 4 3 3 4 4 5 6 7 7 7 8 8 8 8 8 8 9 9 9 9 10 10 10 10 9 8 8 7 6 6 7 8 9 9 9 10 10 10 9 9 10 11 11 12 14 15 14 12
6 5 5 5 5 5 4 4 4 4 4 4 4 4 4 4 4 4 4 4 4 3 3 3 4 5 5 6 6 6 7 7 8 7 8 8 9 9 9 10 10 10 11 11 10 9 8 8 7 7 7 7 8 8 9 9 9 10 10 11 10 10 11 11 12 13 14 13 13
6 6 6 6 6 6 5 5 5 5 5 4 4 4 4 4 4 4 4 3 4 4 4 4 4 5 6 6 6 6 6 6 7 7 7 8 9 9 10 10 10 10 10 10 9 8 7 7 7 6 6 7 8 8 8 8 9 9 10 11 9 8 8 8 9 10 9 9 10
6 7 7 8 8 7 6 5 5 5 5 4 4 4 4 4 4 4 3 4 4 4 4 4 4 4 5 5 5 5 5 6 6 6 7 8 9 9 10 10 10 10 9 9 9 8 8 7 6 6 6 8 8 7 7 7 8 7 7 8 7 7 6 6 7 7 7 7 8
7 7 7 7 8 7 6 5 5 5 4 4 4 4 4 4 4 4 4 4 4 4 3 3 4 4 4 4 5 5 5 6 6 6 7 7 8 8 8 9 9 9 8 9 9 9 8 7 6 6 6 7 6 6 6 6 6 6 6 5 5 5 5 5 5 5 5 6 6
6 7 7 7 7 6 5 4 5 5 4 4 5 5 5 4 4 4 4 4 4 3 3 4 4 4 4 5 5 5 5 6 6 7 7 7 7 7 8 8 8 8 8 9 9 8 8 7 5 5 6 6 5 5 6 6 5 5 5 4 4 4 4 5 5 5 5 6 6
6 7 7 7 7 6 5 4 4 4 4 5 7 7 6 5 5 5 4 4 3 4 4 4 5 5 5 5 5 6 6 6 6 7 7 7 7 7 8 8 8 8 8 8 8 8 7 6 5 5 5 5 4 5 6 6 5 5 5 5 4 4 4 4 4 4 5 7 7
7 7 7 6 6 6 5 4 4 4 5 6 7 7 6 6 6 5 5 4 4 4 4 4 6 6 6 6 7 7 7 7 7 7 7 6 7 7 7 7 7 8 8 8 8 7 7 6 5 5 4 4 4 4 5 6 6 5 5 5 4 4 4 3 4 4 5 7 8
5 5 5 5 5 5 5 5 5 6 6 7 7 6 6 6 6 6 5 5 5 4 5 5 6 7 8 8 8 7 7 7 7 7 6 6 7 7 7 7 7 7 6 6 6 7 6 5 4 4 4 3 3 4 5 5 6 5 5 4 4 4 4 4 4 5 5 6 7
5 4 4 4 4 5 5 5 6 7 7 7 6 6 6 6 6 6 5 4 4 5 6 6 7 7 8 8 7 7 6 6 6 6 6 6 6 6 6 6 6 6 5 5 5 5 5 4 4 4 4 3 4 4 5 5 5 5 5 4 4 5 5 4 5 5 6 6 7
4 4 4 4 4 4 5 6 6 7 7 6 6 6 6 6 6 5 4 4 5 6 6 6 6 6 6 6 6 6 6 5 5 6 6 6 6 6 6 5 5 5 5 5 4 4 4 3 4 4 4 4 4 4 5 5 5 6 5 5 5 6 6 6 6 6 6 6 7
4 4 4 3 4 5 6 6 6 6 6 6 6 6 6 6 5 5 4 5 5 5 5 5 5 5 5 5 5 5 5 5 5 5 5 6 6 6 5 5 5 5 4 4 3 3 3 3 3 4 4 4 4 4 4 5 5 6 6 6 6 6 6 7 7 6 6 6 7
3 3 4 4 5 6 7 7 6 5 5 6 5 5 5 5 5 4 5 5 5 4 4 4 4 4 4 4 4 4 5 5 5 5 5 5 5 5 5 5 5 5 4 4 3 2 2 2 2 3 3 4 4 4 4 5 5 5 6 6 6 6 7 8 7 7 7 7 7
4 4 4 5 6 6 6 6 5 5 5 5 5 4 4 4 4 4 4 4 4 3 3 3 3 3 3 3 3 4 4 4 4 4 4 5 5 5 5 5 5 5 4 4 3 2 2 2 2 2 3 4 4 4 5 5 5 5 5 6 6 7 7 7 7 7 7 8 8
4 5 5 5 6 6 6 5 4 4 4 4 4 3 3 3 3 3 3 3 3 2 2 2 3 3 3 3 3 3 3 3 3 4 4 4 4 4 5 5 5 5 5 5 3 3 2 2 2 2 3 3 4 4 4 4 5 5 5 5 6 6 6 6 6 6 7 7 7
5 5 5 6 6 6 5 4 3 3 3 3 3 3 2 2 2 2 2 2 2 2 2 2 3 3 3 3 3 2 2 3 3 3 3 4 4 4 5 5 5 5 5 5 4 4 3 3 3 3 3 3 3 4 4 4 4 5 5 5 5 5 5 5 5 5 5 6 6
6 5 5 5 6 5 4 3 3 3 3 2 2 2 2 2 2 2 2 2 2 2 2 3 2 3 3 3 3 2 2 2 3 3 3 3 4 4 4 5 5 5 5 5 5 5 4 4 4 4 4 3 3 3 3 4 4 4 5 5 5 5 5 5 4 4 4 4 5
5 4 4 5 5 5 4 3 2 2 2 2 2 2 2 2 2 2 2 2 1 2 2 3 3 3 3 3 3 2 2 2 3 3 4 4 4 4 4 5 5 5 5 4 5 5 5 5 5 5 4 4 3 3 3 3 3 4 4 4 4 4 4 4 4 3 3 3 4
4 4 4 4 4 3 3 2 2 1 1 1 1 1 2 2 2 2 2 2 2 2 2 3 3 3 3 3 4 3 3 2 3 4 5 5 5 5 5 5 5 5 5 5 5 5 5 6 6 5 5 4 3 3 3 3 3 3 4 4 4 4 4 4 4 3 3 3 3
3 3 3 2 2 2 2 1 1 0 1 1 1 1 2 2 2 2 3 3 2 2 2 2 3 4 4 4 4 4 4 3 4 5 5 6 6 5 5 5 5 6 6 5 5 5 5 5 6 6 5 5 4 4 3 3 3 3 3 3 4 4 4 4 4 4 4 3 3
2 2 1 1 1 1 1 0 0 1 1 1 1 1 2 2 3 3 3 3 3 2 2 2 3 4 4 5 5 5 5 4 4 5 6 6 6 6 6 5 5 6 6 6 5 5 5 5 6 6 6 5 4 4 3 3 3 3 3 3 4 4 4 4 4 4 4 4 4
1 1 1 1 1 1 0 1 1 1 1 1 1 2 3 3 3 3 3 3 2 2 2 3 3 4 5 5 5 5 5 5 5 5 5 6 6 6 6 5 5 6 7 7 6 5 5 5 5 5 5 5 4 4 4 3 3 4 4 4 5 5 5 5 4 4 4 4 4
1 1 1 1 0 1 1 1 1 1 1 1 2 3 3 3 4 4 4 3 3 3 3 3 3 4 4 4 4 5 5 5 5 6 6 6 6 6 6 5 6 6 7 7 6 5 5 5 5 5 4 4 4 4 4 4 4 4 5 5 6 6 6 5 5 4 4 4 4
1 1 1 1 1 1 1 2 1 1 1 2 2 3 3 4 4 4 4 4 4 4 4 4 4 4 4 4 4 4 4 5 6 6 7 7 7 7 6 6 6 6 6 6 6 7 6 5 4 4 3 2 3 4 4 4 4 5 5 6 6 7 6 6 5 5 5 5 4
1 1 1 1 1 1 2 2 1 2 2 2 2 3 3 3 4 4 5 5 5 5 5 4 4 4 4 4 4 4 4 4 5 5 6 7 7 7 6 6 5 5 5 6 10 12 12 9 6 4 2 1 2 3 3 4 4 5 5 5 6 6 6 6 6 5 5 5 5
1 1 1 1 1 2 2 2 2 2 2 2 3 3 3 3 3 4 4 5 5 5 4 4 4 4 4 4 4 5 4 4 4 4 5 5 6 6 6 6 5 5 5 8 12 14 15 14 12 6 1 1 1 2 3 3 4 4 4 5 5 5 6 6 6 5 5 5 5
1 1 1 1 1 1 2 2 2 2 2 2 3 3 3 3 3 3 4 4 4 4 3 3 3 3 3 3 3 4 4 3 3 4 4 4 5 6 6 5 5 5 6 10 13 14 15 15 14 9 4 1 1 1 2 3 4 4 4 4 4 5 5 6 6 6 6 5 5
1 1 2 2 2 2 2 2 2 2 2 2 3 3 3 3 4 4 4 4 4 3 3 2 2 2 2 2 3 3 3 3 3 3 3 4 4 5 5 5 5 6 8 13 15 15 15 15 14 11 6 0 1 1 2 3 3 4 4 4 4 4 5 5 5 5 6 6 6
2 2 2 2 2 2 2 2 2 2 2 2 2 3 3 3 4 4 4 4 3 3 2 2 2 2 2 2 2 2 2 3 3 3 3 4 5 5 5 5 5 7 11 15 16 16 16 16 14 11 8 5 2 1 1 2 3 3 4 4 4 4 5 5 5 5 5 5 6
3 3 3 3 2 2 2 2 2 2 2 2 2 3 3 4 4 4 3 3 3 2 2 1 1 1 2 2 2 2 2 2 2 3 3 4 5 5 5 6 6 8 11 16 17 17 17 16 15 13 11 9 4 1 1 2 3 3 4 4 4 5 5 5 6 6 6 5 6
4 4 3 2 2 2 2 3 2 2 2 2 2 3 3 4 4 3 3 2 2 2 2 1 1 1 1 1 1 2 2 2 3 3 3 4 4 4 5 6 7 8 11 16 17 17 17 17 16 15 14 12 6 3 3 3 3 3 3 4 5 5 5 5 5 6 6 6 6
4 3 2 2 2 3 3 3 2 2 1 2 2 3 3 4 3 3 2 2 2 2 2 1 1 1 2 2 2 2 2 3 3 3 3 3 3 4 5 6 7 8 11 16 17 17 17 17 16 16 15 14 9 6 5 5 4 4 4 4 5 5 5 5 5 6 7 7 7
3 2 2 2 3 3 3 2 2 1 1 2 3 3 3 4 3 3 2 2 1 1 1 1 1 1 1 1 2 2 2 2 2 2 3 3 3 4 5 6 6 9 12 16 17 17 16 16 16 17 16 15 10 7 5 5 4 4 4 4 5 5 6 6 6 6 7 7 7
2 2 2 3 3 3 3 2 1 1 2 2 3 3 3 3 3 3 2 1 1 1 1 1 1 0 0 1 1 1 2 2 2 3 3 3 4 5 5 6 5 9 13 16 16 16 16 15 16 15 14 11 7 5 5 5 5 5 5 5 6 6 6 6 6 7 7 7 7
3 3 3 3 3 3 3 2 1 1 2 3 4 4 4 3 3 3 2 1 1 0 1 1 1 1 1 1 1 1 1 2 2 3 3 3 4 5 6 6 6 10 14 16 16 16 15 15 14 12 11 8 5 4 5 5 5 5 6 6 6 7 7 7 7 7 7 7 8
3 3 3 3 3 3 2 2 1 2 2 4 5 5 4 3 3 3 2 2 1 0 1 1 1 1 1 2 1 1 1 2 3 3 3 4 4 5 6 6 7 10 13 15 16 16 16 15 13 11 9 6 4 4 4 5 5 5 6 6 7 7 7 7 7 7 7 7 8
4 4 4 3 3 3 2 1 1 2 3 5 5 4 4 3 3 2 2 2 2 1 0 1 1 1 1 1 1 1 1 1 2 3 4 4 4 5 6 6 7 9 12 15 16 16 16 16 15 12 9 5 4 4 4 5 5 5 6 6 6 7 7 6 6 7 7 8 9
4 4 4 3 3 3 3 2 2 3 4 5 5 4 3 3 2 2 2 3 2 2 1 1 1 0 0 1 0 1 1 1 2 3 4 4 4 4 5 6 7 8 10 14 15 16 16 17 17 16 12 4 4 4 5 5 5 5 5 6 6 6 6 6 6 6 7 8 11
3 3 3 3 4 3 3 3 3 4 5 5 4 4 3 2 2 2 2 2 2 2 2 2 1 1 1 1 1 1 2 2 3 3 3 4 4 5 6 6 6 7 9 13 15 16 17 17 17 17 14 6 4 4 4 5 5 5 5 5 5 5 5 6 5 6 6 8 12
2 3 3 3 4 3 4 4 5 5 5 4 4 3 3 2 2 1 1 2 2 2 2 2 2 1 1 1 1 1 2 3 3 3 3 3 5 6 7 5 6 7 9 12 15 16 16 17 17 17 14 7 5 4 4 4 5 5 5 5 5 5 5 6 5 5 6 7 10
2 2 2 3 4 4 4 6 6 6 5 4 4 3 3 2 1 0 1 2 2 2 2 2 2 1 1 1 1 3 3 3 3 3 3 3 4 6 7 5 5 6 8 11 14 16 16 17 17 17 15 9 6 4 4 4 5 6 6 5 5 5 5 5 5 5 5 5 6
Wind_Direction
46 50 56 63 70 72 70 64 58 56 57 57 54 51 53 57 55 52 47 42 41 38 32 28 20 13 8 6 7 8 8 8 7 8 9 11 9 7 6 7 8 8 7 6 2 358 355 350 353 0 9 14 13 11 8 5 357 352 349 350 357 0 0 360 3 2 1 0 357
50 53 58 63 68 70 69 63 58 55 54 55 53 53 53 55 55 52 48 43 40 36 30 26 18 12 9 6 6 8 9 10 8 9 12 14 13 13 12 13 13 13 13 10 6 4 0 357 7 14 18 21 19 15 10 6 359 355 357 4 12 10 7 6 7 5 3 4 1
55 56 57 59 61 62 63 61 57 54 52 52 50 52 53 54 53 51 47 43 39 35 31 24 16 11 8 4 6 9 12 12 11 14 16 17 17 17 18 17 17 17 16 13 10 8 6 6 19 24 26 27 26 20 12 5 1 1 7 15 19 15 9 8 6 4 2 3 360
56 58 59 60 61 62 63 65 59 55 51 50 49 51 51 51 49 47 44 39 36 34 30 22 14 9 6 5 7 11 15 15 16 19 22 22 21 21 21 21 20 19 17 15 12 10 11 14 25 30 31 32 31 25 14 5 5 9 15 20 19 15 11 7 3 2 360 358 356
56 58 61 64 64 65 66 66 62 58 53 51 50 49 48 46 44 42 39 36 32 28 23 18 13 8 5 6 10 15 18 20 22 25 26 26 24 23 22 23 21 20 18 16 13 13 14 17 27 31 30 31 31 24 12 3 7 12 17 20 17 13 9 5 2 359 356 353 352
60 61 62 64 64 63 63 62 64 62 59 56 53 50 46 41 39 38 37 34 27 21 18 17 13 8 6 8 14 19 23 25 27 28 28 27 24 23 23 24 23 21 19 17 14 14 15 19 26 28 26 26 28 20 10 3 6 10 14 16 14 10 6 2 358 354 352 349 348
67 66 64 63 61 60 59 57 61 62 61 59 55 50 45 39 38 36 34 31 26 21 20 19 14 11 10 11 16 20 23 24 26 28 28 26 24 23 24 24 23 22 21 18 16 15 16 20 24 24 21 19 18 13 7 2 4 7 9 10 8 5 1 357 352 349 347 346 346
69 69 67 65 64 63 60 57 60 60 60 59 54 49 43 38 36 33 31 30 26 23 21 21 16 14 14 15 18 19 20 20 22 23 25 25 23 23 23 22 21 21 20 19 18 16 17 21 23 21 16 12 10 5 1 358 1 3 4 2 358 355 352 348 345 344 343 342 344
66 67 67 65 66 65 64 61 62 62 61 59 53 46 41 38 35 34 33 31 26 24 23 23 18 17 17 18 18 18 17 17 17 17 19 21 21 21 19 19 19 18 17 17 17 17 17 20 20 16 11 7 1 356 353 353 355 356 355 351 347 343 341 340 340 340 340 340 342
66 66 65 64 64 65 65 63 61 61 61 57 51 45 41 38 37 36 34 32 28 28 27 24 21 19 19 17 15 14 12 12 12 12 13 16 17 16 15 14 14 13 13 12 14 15 16 19 14 8 3 359 352 348 346 347 347 346 345 341 337 335 335 336 338 339 340 339 339
68 68 67 67 65 65 64 61 58 57 56 54 49 45 42 40 38 37 35 33 34 31 27 22 21 20 19 15 10 7 5 7 8 9 11 11 11 10 8 6 6 6 6 5 7 10 13 14 7 1 355 350 346 343 341 339 340 339 337 333 333 334 336 338 340 341 339 337 336
68 68 67 65 65 64 62 60 58 55 52 51 48 45 43 41 38 37 36 37 36 32 25 19 19 19 17 12 4 1 1 3 6 8 8 5 2 1 359 356 356 356 355 354 357 2 7 6 1 354 348 341 339 336 334 334 335 334 333 331 333 336 339 340 341 342 341 339 338
65 66 65 61 61 61 61 60 58 54 50 47 47 45 44 40 36 37 38 38 36 30 21 14 14 13 11 5 0 358 358 360 4 5 4 359 355 352 349 346 344 342 341 338 342 348 355 354 349 343 336 330 327 325 326 328 330 330 330 330 334 336 338 340 341 342 342 343 342
58 62 63 60 59 60 60 58 57 53 48 46 44 43 41 37 32 34 38 39 33 26 15 6 4 2 359 356 355 353 352 354 359 0 357 351 346 343 340 335 333 331 329 326 327 330 332 327 323 320 318 316 314 315 318 322 323 324 326 328 332 334 336 337 340 342 345 346 344
56 58 59 60 59 60 60 57 56 53 48 44 40 38 35 29 23 26 33 37 25 16 5 1 353 346 342 343 343 343 344 347 352 352 348 341 336 333 330 326 324 323 322 321 319 315 304 291 286 286 291 296 301 306 311 315 317 318 320 323 325 328 330 333 337 341 344 345 344
58 58 58 60 61 62 61 58 57 53 48 42 33 28 23 12 3 8 18 23 6 358 355 354 343 335 329 328 327 329 334 338 340 339 335 328 324 320 319 318 317 317 317 318 315 309 297 278 269 265 269 276 286 294 301 306 309 311 313 315 318 320 322 325 330 334 338 340 339
60 60 61 64 65 65 63 61 57 51 44 35 21 12 3 351 345 347 353 356 350 347 345 337 329 324 320 315 316 319 324 326 324 321 316 310 307 307 307 307 308 309 311 314 312 307 297 284 272 263 262 265 271 279 286 294 299 302 304 306 308 309 311 314 319 324 328 331 330
63 64 65 68 69 69 68 64 58 50 38 22 3 347 338 334 333 331 330 332 340 340 333 322 315 312 310 308 308 308 309 313 309 305 301 296 295 296 297 300 302 304 307 309 307 302 294 285 277 270 266 264 265 267 273 279 284 289 293 297 298 299 301 304 306 310 315 318 317
70 69 69 73 75 75 75 71 63 48 24 345 325 319 321 324 325 327 327 325 326 325 318 311 309 308 306 305 306 306 306 305 305 302 299 297 298 298 299 300 303 304 305 306 303 298 292 285 279 274 270 268 267 267 269 271 275 280 284 288 292 295 297 298 298 298 299 299 303
80 80 81 87 89 89 85 80 72 36 303 287 300 316 324 325 327 328 325 314 308 303 304 304 309 310 311 313 315 315 313 310 309 307 306 305 307 306 306 305 306 305 304 303 302 299 294 288 282 277 274 270 271 271 272 275 279 281 285 289 292 294 294 295 296 295 295 295 299
97 104 113 123 119 115 110 116 189 249 263 277 308 331 335 332 328 319 308 297 297 301 306 306 311 315 318 320 322 321 319 316 317 315 313 313 314 312 310 308 307 305 305 305 304 302 299 293 286 281 277 275 274 274 278 285 290 295 298 301 301 299 297 296 296 296 298 299 302
135 156 176 183 165 160 182 231 243 248 261 295 339 346 342 332 320 308 298 295 304 313 317 315 316 318 319 320 322 322 321 321 322 322 323 324 323 320 318 315 313 311 310 309 307 305 303 298 290 285 282 284 287 292 298 305 308 312 314 315 313 311 307 302 299 298 298 300 303
191 214 236 251 268 269 262 255 253 259 294 348 354 349 339 326 316 311 310 315 323 325 325 321 320 319 319 319 322 325 327 329 332 334 336 338 336 334 331 329 326 322 317 311 307 305 304 301 295 292 292 299 309 316 321 323 324 324 325 323 321 317 313 308 304 301 302 304 306
224 251 272 299 303 290 277 268 276 311 351 360 351 340 331 321 319 320 323 326 327 327 326 323 321 321 323 327 332 335 338 340 341 342 344 347 347 346 344 344 340 333 324 316 316 315 311 299 294 294 302 323 331 330 329 329 329 330 328 324 319 316 312 308 305 304 305 307 309
249 272 292 309 297 289 286 293 323 344 350 344 337 332 327 323 323 324 325 325 325 324 323 321 322 327 334 340 342 345 349 353 353 352 351 351 353 355 356 356 350 342 333 326 327 326 323 313 304 297 298 350 344 336 329 327 326 326 323 317 312 309 307 306 306 306 307 308 309
262 277 289 287 287 291 300 317 332 333 330 327 332 331 327 323 322 322 321 320 318 318 318 321 329 338 344 347 349 353 356 360 2 1 0 358 360 2 3 1 353 345 338 336 337 335 330 322 315 309 295 102 1 332 324 318 318 317 313 307 302 301 302 304 307 310 311 311 309
245 246 254 263 271 281 293 302 311 317 319 323 328 325 320 319 319 317 314 311 309 310 314 325 337 343 347 352 358 359 359 0 3 7 8 10 11 9 5 358 351 342 339 342 343 342 338 332 324 321 318 153 158 293 301 302 305 307 306 304 301 299 299 301 304 307 310 312 311
222 226 236 249 249 256 266 286 304 307 308 311 314 313 312 315 313 308 305 302 305 312 321 331 335 341 353 5 2 359 357 359 3 6 10 17 19 14 6 356 347 341 343 348 350 348 345 340 334 332 332 158 179 230 265 284 297 303 306 307 307 305 304 303 304 307 309 312 313
222 224 228 232 236 245 260 277 283 285 287 293 302 307 309 309 304 301 299 302 309 317 324 324 328 346 3 5 351 347 353 2 5 10 15 19 17 11 3 354 345 343 346 352 353 351 348 343 340 335 327 316 280 237 255 289 306 313 315 316 316 315 314 312 311 310 310 312 316
226 226 226 226 236 246 256 258 259 264 275 292 305 307 306 303 299 296 295 296 295 294 291 295 324 354 2 345 338 347 358 1 5 15 21 21 15 7 360 354 347 346 348 353 352 350 347 343 339 331 322 316 307 298 323 328 329 328 326 323 322 321 319 317 314 314 315 317 321
228 225 224 226 238 246 250 250 254 264 282 303 305 303 300 296 291 285 278 274 271 271 276 288 338 354 346 322 335 352 0 360 7 15 20 20 13 5 359 355 350 347 348 352 351 348 345 341 339 333 329 329 343 5 8 350 344 337 331 327 326 325 323 320 319 319 319 321 323
228 224 221 225 238 245 250 254 261 275 293 300 296 291 287 282 274 267 259 254 268 283 298 319 359 3 351 341 348 356 3 6 9 10 12 14 10 5 2 0 353 349 348 351 350 347 345 345 348 351 356 6 17 19 8 356 347 339 332 328 327 326 325 324 322 320 320 320 320
229 222 218 225 237 247 254 261 271 287 298 295 285 281 277 275 273 271 266 258 269 285 297 310 358 16 5 350 356 2 5 7 4 2 2 7 10 10 7 4 355 349 349 351 349 348 350 358 8 16 22 28 28 20 6 359 351 343 337 333 329 326 324 322 320 319 319 317 316
228 223 224 231 239 248 257 270 282 302 303 296 286 278 273 273 279 280 275 259 260 272 282 279 274 268 276 292 345 3 4 2 3 4 6 8 13 14 11 6 355 350 350 351 350 353 360 14 25 30 31 30 25 14 3 356 349 342 336 330 326 325 324 323 320 318 316 314 313
218 219 229 238 244 251 261 274 292 305 303 296 289 284 278 269 265 260 255 240 235 280 292 290 292 302 311 309 318 351 11 13 13 12 12 13 18 16 12 3 352 349 350 352 353 358 7 20 30 32 30 24 15 4 356 351 344 336 330 325 323 322 322 322 320 317 315 313 311
211 213 224 239 248 256 262 273 293 302 297 289 286 283 280 271 253 238 224 199 163 160 299 308 342 359 0 350 345 357 16 28 24 20 17 18 22 18 11 0 351 348 349 352 356 1 7 14 20 23 22 17 5 355 350 345 338 331 326 322 320 319 319 319 317 315 314 312 310
209 209 218 236 250 256 261 268 287 290 286 281 277 274 271 266 255 235 205 169 147 142 146 18 35 31 17 359 351 351 4 29 35 28 22 20 24 20 12 1 353 348 348 353 358 1 2 4 3 6 8 11 359 351 346 341 335 328 324 320 317 315 315 314 314 313 312 311 311
212 208 215 232 247 254 259 264 271 273 272 271 266 260 256 256 256 237 201 162 150 145 142 101 91 105 241 259 289 340 6 28 41 37 29 19 21 21 17 6 356 348 348 354 359 360 359 358 355 356 359 6 358 350 344 339 332 326 321 318 315 314 314 314 314 314 312 310 314
217 212 216 232 245 253 260 265 263 260 259 261 259 255 250 249 252 237 200 155 144 142 142 136 160 200 228 236 220 49 39 35 40 40 33 20 18 22 23 14 358 350 349 355 359 359 358 357 354 354 356 2 1 353 345 338 330 323 318 314 315 316 317 316 316 313 311 307 316
220 217 224 237 248 257 264 268 263 257 251 249 250 248 244 239 244 235 164 123 124 132 141 147 170 199 224 221 152 85 59 41 34 33 30 20 19 23 25 19 1 351 351 356 359 360 359 358 357 356 357 2 4 357 345 336 327 321 316 314 318 320 320 318 314 312 309 307 316
224 226 237 250 258 264 269 272 269 263 255 243 239 236 232 228 237 197 85 92 108 129 144 149 164 189 208 193 123 88 69 48 30 22 18 16 19 21 22 16 2 353 351 355 359 0 0 360 359 359 359 2 4 356 342 333 324 319 317 316 320 321 319 316 312 311 311 313 316